"Pseudo-MPEC" for P11JT5T

Created 2023 Sep 25 13:22:19 UT using Find_Orb

Click here for an explanation of pseudo-MPECs

 
 Astrometry: 
     P11JT5T* C2023 09 18(H@j8O/8hknIaiEYZbqY(,U*H3SL.P[jxUAstrometry46^DOL5wF51
     P11JT5T  C2023 09 18uPf@c\ZYd@hHC!!o0+**_5tw3#IHEy@?b@wS@=Ai:CDd-Pna4.P.F51
     P11JT5T  C2023 09 18+cf/ffT?-s''OX5pPV_jS]T:g#!e,dJJPY63U#a6_6ot`E*Ei^]xF51
     P11JT5T  C2023 09 18xJUTL@;jDe@$!\k0:,FyCos)n#)^;@6njkp1=`U(3]=YmWe:0bc]F51
     P11JT5T  C2023 09 18FX`)pVI,$9w0bDJqQ+dnW%)K5l5LlGfu=redacted;BDIF]'GbKrF51
     P11JT5T KC2023 09 193Q#roK6MPtclickR?fgk2h1-+T+.TB.[jJ`^l?VaDGhNAAmab8sQH21
     P11JT5T KC2023 09 19IZ\WeEf-ShereGQX.mpTf;0M^^n%+/Aw(r!/2'Tx5af?b45T1eCoH21
     P11JT5T 2C2023 09 24#8tc!:^h;Q((_qG7@h%0*ZLyoeVa`?=VZ!xO!PW]i8.6F1a%AE_mT12
     P11JT5T 2C2023 09 24;^';XA4uQHPOx+Y/iforIGQ9@wJ'WkL8BU/IJAD8uaF$_Q8Ht;pLT12
     P11JT5T 2C2023 09 24T6#Y=ZJCw=?,LBVmfnc;/c@n:X=5explanationsga'#`tyeqP\7T12

Station data:
(F51) Pan-STARRS 1, Haleakala  (N20.707234 W156.255910)  US/Hawaii.
   Observers J. Bulger, T. Lowe, A. Schultz, M. Willman. Measurers K.
   Chambers, S. Chastel, T. de Boer, L. Denneau, J. Fairlamb, H. Flewelling,
   M. Huber, C.-C. Lin, E. Magnier, Y. Ramanjooloo, R. Wainscoat, R. Weryk.
   1.8-m Ritchey-Chrétien + CCD.
(H21) Astronomical Research Observatory, Westfield  (N39.483054 W87.968270)
   US/Illinois.  Observer R. Holmes. Measurers S. Foglia, L. Buzzi, T.
   Linder, R. Holmes. 0.76-m f/3.0 astrograph + CCD0.81-m f/4.0 astrograph +
   CCD0.61-m f/4.5 astrograph + CCD0.40-m f/5.32 astrograph + CCD.
(T12) Mauna Kea-UH/Tholen NEO Follow-Up (2.24-m)  (N19.822991 W155.469434)
   US/Hawaii.  Observer Y. Ramanjooloo. 2.24-m f/10.1 University of Hawaii
   reflector.

Orbital elements:  P11JT5T
   Perihelion 2024 Mar 31.21504 +/- 4.71 TT =  5:09:39 (JD 2460400.71504)
Epoch 2023 Sep 24.0 TT = JDT 2460211.5   Earth MOID: 0.7305      AutoNEOCP
M 287.29954005 +/- 1.9              (J2000 ecliptic)
n   0.38422135 +/- 0.00132          Peri.  151.81331 +/- 0.8
a   1.87390851 +/- 0.0043           Node   282.70691 +/- 0.41
e   0.0903294 +/- 0.00705           Incl.   16.25089 +/- 0.09
P   2.57/936.94d           H 20.38  G  0.15   U  8.3
q 1.70463946 +/- 0.0107    Q 2.04317755 +/- 0.0169
From 10 observations 2023 Sept. 18-24; mean residual 0".08
Residuals in arcseconds: 
230918 F51  .06-  .06-    230918 F51  .12-  .08-    230924 T12  .03-  .03-    
230918 F51  .01+  .09+    230919 H21  .09-  .09-    230924 T12  .00   .02-    
230918 F51  .05+  .06+    230919 H21  .05+  .22+    
230918 F51  .13+  .04-    230924 T12  .03+  .05+    

Ephemerides (geocentric):
Date (UTC) HH   RA             Dec           delta  r     elong  mag " sig PA
---- --------  ------------   ------------  ------ ------ -----  --- --------
2023 09 25 13  21 53 20.959   +20 12 03.93  .93901 1.8363 142.0 22.6 .589 157
2023 09 25 14  21 53 18.994   +20 11 45.77  .93913 1.8362 142.0 22.6 .612 157
2023 09 25 15  21 53 17.033   +20 11 27.60  .93925 1.8362 141.9 22.6 .635 157
2023 09 25 16  21 53 15.077   +20 11 09.40  .93937 1.8361 141.9 22.6 .659 157
2023 09 25 17  21 53 13.125   +20 10 51.18  .93950 1.8361 141.9 22.6 .683 157
2023 09 25 18  21 53 11.177   +20 10 32.94  .93962 1.8360 141.9 22.6 .707 157
2023 09 25 19  21 53 09.234   +20 10 14.68  .93974 1.8360 141.8 22.6 .732 157
2023 09 25 20  21 53 07.294   +20 09 56.39  .93986 1.8360 141.8 22.6 .756 156
2023 09 25 21  21 53 05.360   +20 09 38.09  .93999 1.8359 141.8 22.6 .781 156
2023 09 25 22  21 53 03.429   +20 09 19.76  .94011 1.8359 141.8 22.6 .806 156
2023 09 25 23  21 53 01.503   +20 09 01.41  .94024 1.8358 141.7 22.6 .832 156
2023 09 26 00  21 52 59.582   +20 08 43.04  .94036 1.8358 141.7 22.6 .857 156
2023 09 26 01  21 52 57.664   +20 08 24.65  .94048 1.8357 141.7 22.6 .883 156
2023 09 26 02  21 52 55.751   +20 08 06.23  .94061 1.8357 141.6 22.6 .909 156
2023 09 26 03  21 52 53.843   +20 07 47.80  .94073 1.8356 141.6 22.6 .936 156
2023 09 26 04  21 52 51.939   +20 07 29.34  .94086 1.8356 141.6 22.6 .962 156
2023 09 26 05  21 52 50.039   +20 07 10.86  .94099 1.8355 141.6 22.6 .989 156
2023 09 26 06  21 52 48.143   +20 06 52.37  .94111 1.8355 141.5 22.6 1.02 156
2023 09 26 07  21 52 46.252   +20 06 33.85  .94124 1.8354 141.5 22.6 1.04 156
2023 09 26 08  21 52 44.365   +20 06 15.31  .94136 1.8354 141.5 22.6 1.07 155
2023 09 26 09  21 52 42.483   +20 05 56.75  .94149 1.8353 141.5 22.6 1.10 155
2023 09 26 10  21 52 40.605   +20 05 38.16  .94162 1.8353 141.4 22.6 1.13 155
2023 09 26 11  21 52 38.731   +20 05 19.56  .94174 1.8352 141.4 22.6 1.15 155
2023 09 26 12  21 52 36.862   +20 05 00.94  .94187 1.8352 141.4 22.6 1.18 155
2023 09 26 13  21 52 34.997   +20 04 42.30  .94200 1.8352 141.3 22.6 1.21 155
2023 09 26 14  21 52 33.137   +20 04 23.63  .94213 1.8351 141.3 22.6 1.24 155
2023 09 26 15  21 52 31.281   +20 04 04.95  .94226 1.8351 141.3 22.6 1.27 155
2023 09 26 16  21 52 29.429   +20 03 46.24  .94239 1.8350 141.3 22.6 1.30 155
2023 09 26 17  21 52 27.582   +20 03 27.52  .94251 1.8350 141.2 22.6 1.33 155
2023 09 26 18  21 52 25.739   +20 03 08.78  .94264 1.8349 141.2 22.6 1.36 155
2023 09 26 19  21 52 23.901   +20 02 50.01  .94277 1.8349 141.2 22.6 1.39 155
2023 09 26 20  21 52 22.067   +20 02 31.23  .94290 1.8348 141.1 22.6 1.42 155
2023 09 26 21  21 52 20.237   +20 02 12.42  .94303 1.8348 141.1 22.6 1.45 155
2023 09 26 22  21 52 18.412   +20 01 53.60  .94316 1.8347 141.1 22.6 1.48 154
2023 09 26 23  21 52 16.591   +20 01 34.75  .94329 1.8347 141.1 22.6 1.51 154
2023 09 27 00  21 52 14.775   +20 01 15.89  .94342 1.8346 141.0 22.6 1.54 154
2023 09 27 01  21 52 12.963   +20 00 57.00  .94356 1.8346 141.0 22.6 1.57 154
2023 09 27 02  21 52 11.155   +20 00 38.10  .94369 1.8345 141.0 22.6 1.61 154
2023 09 27 03  21 52 09.352   +20 00 19.17  .94382 1.8345 140.9 22.6 1.64 154
2023 09 27 04  21 52 07.554   +20 00 00.23  .94395 1.8344 140.9 22.6 1.67 154
2023 09 27 05  21 52 05.759   +19 59 41.27  .94408 1.8344 140.9 22.6 1.70 154
2023 09 27 06  21 52 03.970   +19 59 22.29  .94422 1.8344 140.9 22.6 1.74 154
2023 09 27 07  21 52 02.184   +19 59 03.29  .94435 1.8343 140.8 22.6 1.77 154
2023 09 27 08  21 52 00.404   +19 58 44.27  .94448 1.8343 140.8 22.6 1.80 154
2023 09 27 09  21 51 58.627   +19 58 25.23  .94462 1.8342 140.8 22.6 1.84 154
2023 09 27 10  21 51 56.855   +19 58 06.17  .94475 1.8342 140.8 22.6 1.87 154
2023 09 27 11  21 51 55.088   +19 57 47.09  .94488 1.8341 140.7 22.6 1.90 154
2023 09 27 12  21 51 53.324   +19 57 27.99  .94502 1.8341 140.7 22.6 1.94 154